This is the latest recevied weather packets stored in our database for station/object KA3BQE-13. If no packets are shown the sender has not sent any weather packets the latest 1 day(s).
| Time | Temp. | Humidity | Pressure | Rain* | Wind** | Luminosity | Snow |
|---|---|---|---|---|---|---|---|
| 1777997003 | 10.56° C | 79% | 1011.1 hPa | 0 mm | 1.79 m/s, 308° | 381 W/m² | - |
| 1777996699 | 10° C | 78% | 1010.9 hPa | 0 mm | 1.79 m/s, 2° | 329 W/m² | - |
| 1777996395 | 10.56° C | 78% | 1011 hPa | 0 mm | 0.89 m/s, 34° | 302 W/m² | - |
| 1777996092 | 10° C | 78% | 1010.9 hPa | 0 mm | 0.89 m/s, 276° | 273 W/m² | - |
| 1777995788 | 10° C | 80% | 1011 hPa | 0 mm | 3.13 m/s, 358° | 300 W/m² | - |
| 1777995484 | 10.56° C | 80% | 1011 hPa | 0 mm | 2.24 m/s, 316° | 287 W/m² | - |
| 1777995181 | 10.56° C | 79% | 1011.1 hPa | 0 mm | 0 m/s | 286 W/m² | - |
| 1777994879 | 10.56° C | 78% | 1011 hPa | 0 mm | 1.34 m/s, 349° | 328 W/m² | - |
| 1777994575 | 10.56° C | 79% | 1011.1 hPa | 0 mm | 2.68 m/s, 358° | 437 W/m² | - |
| 1777994269 | 11.11° C | 79% | 1011 hPa | 0 mm | 1.79 m/s, 347° | 408 W/m² | - |
| 1777993967 | 10.56° C | 78% | 1011.2 hPa | 0 mm | 2.68 m/s, 332° | 381 W/m² | - |
| 1777993664 | 10.56° C | 79% | 1010.9 hPa | 0 mm | 2.68 m/s, 328° | 366 W/m² | - |
| 1777993361 | 10° C | 80% | 1010.6 hPa | 0 mm | 2.24 m/s, 46° | 370 W/m² | - |
| 1777993056 | 10° C | 79% | 1010.8 hPa | 0 mm | 2.68 m/s, 346° | 286 W/m² | - |
| 1777992755 | 10° C | 80% | 1010.5 hPa | 0 mm | 1.34 m/s, 314° | 393 W/m² | - |
| 1777992452 | 9.44° C | 78% | 1010.8 hPa | 0 mm | 2.24 m/s, 317° | 379 W/m² | - |
| 1777992150 | 9.44° C | 78% | 1010.8 hPa | 0 mm | 0.89 m/s, 282° | 311 W/m² | - |
| 1777991847 | 8.89° C | 79% | 1010.7 hPa | 0 mm | 0.89 m/s, 351° | 246 W/m² | - |
| 1777991544 | 8.89° C | 80% | 1010.7 hPa | 0 mm | 3.58 m/s, 337° | 223 W/m² | - |
| 1777991241 | 8.89° C | 82% | 1010.6 hPa | 0 mm | 3.13 m/s, 341° | 156 W/m² | - |
| 1777990938 | 8.33° C | 84% | 1010.8 hPa | 0 mm | 0.89 m/s, 350° | 177 W/m² | - |
| 1777990636 | 8.33° C | 84% | 1010.7 hPa | 0 mm | 2.24 m/s, 0° | 102 W/m² | - |
| 1777990333 | 8.33° C | 84% | 1010.8 hPa | 0 mm | 2.24 m/s, 311° | 82 W/m² | - |
| 1777990029 | 8.33° C | 86% | 1010.7 hPa | 0 mm | 1.34 m/s, 292° | 93 W/m² | - |
| 1777989726 | 8.33° C | 85% | 1010.9 hPa | 0.51 mm | 1.79 m/s, 343° | 98 W/m² | - |
* Rain latest hour (hover to see other rain measurements)
** Current wind speed in m/s (hover to see current wind gust speed)